Weather History for Leuchars, United Kingdom

Change the Weather History Date:

Sunday, March 3, 2013

  Actual Average Record
Temperature  
Mean Temperature 44 °F -  
Max Temperature 48 °F 46 °F 51 °F (2002)
Min Temperature 39 °F 35 °F 12 °F (2001)
Degree Days  
Heating Degree Days 22    
Moisture  
Dew Point 39 °F    
Average Humidity 86    
Maximum Humidity 100    
Minimum Humidity 58    
Precipitation  
Precipitation 0.00 in - - ()
Sea Level Pressure  
Sea Level Pressure 30.18 in    
Wind  
Wind Speed 3 mph ()    
Max Wind Speed 10 mph    
Max Gust Speed -    
Visibility 8.5 miles    
Events      
Averages and records for this station are not official NWS values.
T = Trace of Precipitation, MM = Missing Value Source: Averaged Metar Reports

Daily Weather History Graph

Daily Weather History Graph

Search for Another Location

Airport:

Trip Planner

Search our weather history database for the weather conditions in past years. The results will help you decide how hot, cold, wet, or windy it might be!

Date:

Astronomy

Mar. 03, 2013 Rise Set
Actual Time 6:58 AM GMT 5:49 PM GMT
Civil Twilight 6:20 AM GMT 6:27 PM GMT
Nautical Twilight 5:37 AM GMT 7:10 PM GMT
Astronomical Twilight 4:53 AM GMT 7:55 PM GMT
Moon 12:21 AM GMT (3/3) 8:48 AM GMT (3/3)
Length of Visible Light 12h 06m
Length of Day
10h 51m
Waning Gibbous, 66% of the Moon is Illuminated
Mar 3
Waning Gibbous
Mar 4
Last Quarter
Mar 11
New
Mar 19
First Quarter
Mar 27
Full

Hourly Weather History & Observations

Time (GMT) Temp. Windchill Dew Point Humidity Pressure Visibility Wind Dir Wind Speed Gust Speed Precip Events Conditions
12:50 AM 39.2 °F - 39.2 °F 100% 30.27 in 6.2 mi Calm Calm - N/A   Overcast
1:50 AM 39.2 °F - 39.2 °F 100% 30.24 in 6.2 mi ENE 1.2 mph - N/A   Overcast
2:50 AM 39 °F - 38 °F 95% 30.25 in 19 mi NW 1.2 mph - -   Overcast
2:50 AM 39.2 °F - 37.4 °F 93% 30.24 in 6.2 mi NW 1.2 mph - N/A   Overcast
3:50 AM 39.2 °F - 37.4 °F 93% 30.24 in 6.2 mi NNE 2.3 mph - N/A   Overcast
4:50 AM 39.2 °F 37.0 °F 37.4 °F 93% 30.21 in 6.2 mi NNE 3.5 mph - N/A   Overcast
5:50 AM 40 °F - 38 °F 92% 30.23 in 16 mi NNE 1.2 mph - -   Overcast
5:50 AM 39.2 °F - 39.2 °F 100% 30.21 in 6.2 mi NNE 1.2 mph - N/A   Overcast
6:50 AM 39.2 °F - 39.2 °F 100% 30.21 in 6.2 mi SSW 1.2 mph - N/A   Overcast
7:50 AM 39.2 °F - 39.2 °F 100% 30.21 in 6.2 mi North 2.3 mph - N/A   Mostly Cloudy
8:50 AM 40 °F - 39 °F 96% 30.23 in 16 mi North 2.3 mph - -   Mostly Cloudy
8:50 AM 41.0 °F - 39.2 °F 93% 30.21 in 6.2 mi North 2.3 mph - N/A   Mostly Cloudy
9:50 AM 41.0 °F - 41.0 °F 100% 30.21 in 6.2 mi West 1.2 mph - N/A   Mostly Cloudy
10:50 AM 42.8 °F - 41.0 °F 93% 30.21 in 6.2 mi West 2.3 mph - N/A   Mostly Cloudy
11:50 AM 44 °F - 40 °F 81% 30.21 in 16 mi West 2.3 mph - -   Mostly Cloudy
11:50 AM 44.6 °F - 41.0 °F 87% 30.18 in 6.2 mi West 2.3 mph - N/A   Mostly Cloudy
12:50 PM 46.4 °F 42.4 °F 41.0 °F 81% 30.18 in 6.2 mi West 8.1 mph - N/A   Mostly Cloudy
1:50 PM 46.4 °F 42.4 °F 39.2 °F 76% 30.15 in 6.2 mi WSW 8.1 mph - N/A   Mostly Cloudy
2:50 PM 48 °F - 38 °F 58% 30.16 in 16 mi West 10.4 mph - -   Mostly Cloudy
2:50 PM 48.2 °F - 37.4 °F 66% 30.15 in 6.2 mi West 10.4 mph - N/A   Mostly Cloudy
3:50 PM 48.2 °F - 39.2 °F 71% 30.12 in 6.2 mi WSW 9.2 mph - N/A   Mostly Cloudy
4:50 PM 46.4 °F 43.5 °F 39.2 °F 76% 30.12 in 6.2 mi WSW 5.8 mph - N/A   Overcast
5:50 PM 44 °F - 38 °F 74% 30.14 in 16 mi WSW 4.6 mph - -   Overcast
5:50 PM 44.6 °F 42.2 °F 39.2 °F 81% 30.12 in 6.2 mi WSW 4.6 mph - N/A   Overcast
6:50 PM 44.6 °F 42.2 °F 37.4 °F 76% 30.12 in 6.2 mi West 4.6 mph - N/A   Overcast
7:50 PM 44.6 °F 42.2 °F 37.4 °F 76% 30.12 in 6.2 mi West 4.6 mph - N/A   Overcast
8:50 PM 42 °F - 38 °F 81% 30.13 in 12 mi WSW 5.8 mph - -   Overcast
8:50 PM 42.8 °F 39.3 °F 37.4 °F 81% 30.12 in 6.2 mi WSW 5.8 mph - N/A   Overcast
9:50 PM 42.8 °F 41.1 °F 37.4 °F 81% 30.12 in 6.2 mi WSW 3.5 mph - N/A   Overcast
10:50 PM 41.0 °F 38.0 °F 37.4 °F 87% 30.09 in 6.2 mi SW 4.6 mph - N/A   Overcast
11:50 PM 42 °F - 37 °F 75% 30.11 in 11 mi WSW 3.5 mph - -   Overcast
11:50 PM 41.0 °F 39.0 °F 37.4 °F 87% 30.09 in 6.2 mi WSW 3.5 mph - N/A   Overcast